Simultaneous Nadir Overpasses (SNOs) Predictions

Prediction of SNOs between GOES-17 and METOP-C Satellite Orbit:

Table of predicted SNOs for the next 14.0 days since TLE Epoch: 10/22/2022
Index Date Time (GOES-17) GOES-17 Lat,Lon METOP-C Lat,Lon Distance(km) Time Diff (sec)
1 10/22/2022 06:44:11 0.07,-137.33 -0.13,-138.16 95.54 80
2 10/23/2022 06:23:33 0.07,-137.32 0.99,-133.17 473.07 80
3 10/24/2022 18:39:45 -0.07,-137.32 0.03,-137.73 46.51 80
4 10/27/2022 06:40:49 0.07,-137.29 0.09,-137.34 6.19 80
5 10/29/2022 18:39:02 -0.06,-137.26 -0.12,-136.90 40.73 80
6 10/31/2022 06:55:23 0.06,-137.22 -0.91,-141.49 487.36 80
7 11/01/2022 06:37:24 0.05,-137.20 0.22,-136.50 79.41 80
8 11/02/2022 18:53:37 -0.05,-137.17 0.82,-141.06 443.03 80
9 11/03/2022 18:35:38 -0.05,-137.15 -0.30,-136.07 123.63 80
